Greeley, CO

4:02 AM MDT on March 29, 2017 (GMT -0600)
Greeley-Weld County

Weather History for KGXY - June, 2014

Change the Weather History Date:

Monday, June 9, 2014

  Actual Average Record
Temperature  
Mean Temperature 56 °F -  
Max Temperature 69 °F - 96 °F (2012)
Min Temperature 44 °F - 38 °F (1979)
Degree Days  
Heating Degree Days 8    
Month to date heating degree days  
Cooling Degree Days 0    
Month to date cooling degree days  
Growing Degree Days 6 (Base 50)    
Moisture  
Dew Point 36 °F    
Average Humidity 49    
Maximum Humidity 71    
Minimum Humidity 28    
Precipitation  
Precipitation 0.01 in - 0.51 in (1983)
Sea Level Pressure  
Sea Level Pressure 30.11 in    
Wind  
Wind Speed 11 mph (NNE)    
Max Wind Speed 20 mph    
Max Gust Speed 24 mph    
Visibility 10 miles    
Events      
T = Trace of Precipitation, MM = Missing Value Source: NWS Daily Summary

Daily Weather History Graph

Daily Weather History Graph

Search for Another Location

Airport or City:

Trip Planner

Search our weather history database for the weather conditions in past years. The results will help you decide how hot, cold, wet, or windy it might be!

Date:

Astronomy

Jun. 09, 2014 Rise Set
Actual Time 5:28 AM MDT 8:27 PM MDT
Civil Twilight 4:55 AM MDT 9:00 PM MDT
Nautical Twilight 4:13 AM MDT 9:42 PM MDT
Astronomical Twilight 3:24 AM MDT 10:31 PM MDT
Moon 4:50 PM MDT (6/9) 2:57 AM MDT (6/9)
Length of Visible Light 16h 05m
Length of Day
14h 59m
Waxing Gibbous, 85% of the Moon is Illuminated
Jun 9
Waxing Gibbous
Jun 12
Full
Jun 19
Last Quarter
Jun 27
New
Jul 5
First Quarter

Hourly Weather History & Observations

Time (MDT) Temp. Windchill Dew Point Humidity Pressure Visibility Wind Dir Wind Speed Gust Speed Precip Events Conditions
12:15 AM 48.2 °F - 37.4 °F 66% 30.16 in 10.0 mi NNW 11.5 mph - N/A   Mostly Cloudy
12:55 AM 48.2 °F - 37.4 °F 66% 30.16 in 10.0 mi NNW 9.2 mph - N/A   Partly Cloudy
1:15 AM 48.2 °F - 37.4 °F 66% 30.16 in 10.0 mi NW 8.1 mph - N/A   Clear
1:35 AM 48.2 °F - 37.4 °F 66% 30.15 in 10.0 mi NW 10.4 mph - N/A   Clear
1:55 AM 46.4 °F 41.1 °F 37.4 °F 71% 30.15 in 10.0 mi NW 11.5 mph - N/A   Clear
2:15 AM 48.2 °F - 35.6 °F 62% 30.14 in 10.0 mi NW 15.0 mph - N/A   Clear
2:35 AM 48.2 °F - 35.6 °F 62% 30.14 in 10.0 mi NW 15.0 mph - N/A   Clear
2:55 AM 48.2 °F - 35.6 °F 62% 30.15 in 10.0 mi NW 16.1 mph 21.9 mph N/A   Clear
3:15 AM 46.4 °F 39.8 °F 35.6 °F 66% 30.15 in 10.0 mi NW 16.1 mph - N/A   Clear
3:35 AM 46.4 °F 40.4 °F 35.6 °F 66% 30.15 in 10.0 mi NW 13.8 mph - N/A   Clear
3:55 AM 46.4 °F 40.4 °F 35.6 °F 66% 30.15 in 10.0 mi NW 13.8 mph - N/A   Clear
4:15 AM 46.4 °F 40.4 °F 33.8 °F 62% 30.16 in 10.0 mi NW 13.8 mph - N/A   Clear
4:35 AM 46.4 °F 41.1 °F 33.8 °F 62% 30.15 in 10.0 mi NW 11.5 mph - N/A   Clear
4:55 AM 44.6 °F 39.2 °F 33.8 °F 66% 30.16 in 10.0 mi NNW 10.4 mph - N/A   Clear
5:15 AM 44.6 °F 39.7 °F 33.8 °F 66% 30.16 in 10.0 mi NNW 9.2 mph - N/A   Clear
5:35 AM 44.6 °F 39.2 °F 33.8 °F 66% 30.16 in 10.0 mi NNW 10.4 mph - N/A   Clear
5:55 AM 44.6 °F 38.8 °F 33.8 °F 66% 30.17 in 10.0 mi NNW 11.5 mph - N/A   Clear
6:15 AM 44.6 °F 39.7 °F 33.8 °F 66% 30.18 in 10.0 mi NW 9.2 mph - N/A   Clear
6:35 AM 46.4 °F 42.4 °F 35.6 °F 66% 30.18 in 10.0 mi NW 8.1 mph - N/A   Clear
6:55 AM 46.4 °F 41.9 °F 35.6 °F 66% 30.18 in 10.0 mi NNW 9.2 mph - N/A   Clear
7:15 AM 46.4 °F 41.9 °F 35.6 °F 66% 30.18 in 10.0 mi North 9.2 mph - N/A   Clear
7:35 AM 48.2 °F - 35.6 °F 62% 30.18 in 10.0 mi North 10.4 mph - N/A   Clear
7:55 AM 51.8 °F - 37.4 °F 58% 30.19 in 10.0 mi North 9.2 mph - N/A   Clear
8:15 AM 53.6 °F - 37.4 °F 54% 30.19 in 10.0 mi North 9.2 mph - N/A   Clear
8:35 AM 53.6 °F - 37.4 °F 54% 30.18 in 10.0 mi North 11.5 mph - N/A   Clear
9:15 AM 55.4 °F - 39.2 °F 54% 30.18 in 10.0 mi North 9.2 mph - N/A   Clear
9:35 AM 59.0 °F - 37.4 °F 45% 30.17 in 10.0 mi North 18.4 mph 21.9 mph N/A   Clear
9:55 AM 60.8 °F - 35.6 °F 39% 30.16 in 10.0 mi North 15.0 mph 24.2 mph N/A   Clear
10:35 AM 62.6 °F - 35.6 °F 37% 30.16 in 10.0 mi North 15.0 mph 20.7 mph N/A   Clear
10:55 AM 62.6 °F - 35.6 °F 37% 30.16 in 10.0 mi North 16.1 mph 23.0 mph N/A   Clear
11:15 AM 64.4 °F - 35.6 °F 34% 30.16 in 10.0 mi North 19.6 mph 23.0 mph N/A   Clear
11:35 AM 64.4 °F - 35.6 °F 34% 30.15 in 10.0 mi North 16.1 mph 21.9 mph N/A   Clear
11:55 AM 64.4 °F - 35.6 °F 34% 30.15 in 10.0 mi NNE 16.1 mph 24.2 mph N/A   Clear
12:15 PM 64.4 °F - 35.6 °F 34% 30.14 in 10.0 mi North 16.1 mph 23.0 mph N/A   Clear
12:35 PM 66.2 °F - 35.6 °F 32% 30.13 in 10.0 mi NNE 13.8 mph 18.4 mph N/A   Clear
2:15 PM 68.0 °F - 35.6 °F 30% 30.10 in 10.0 mi NE 12.7 mph - N/A   Clear
2:35 PM 68.0 °F - 35.6 °F 30% 30.09 in 10.0 mi ENE 10.4 mph - N/A   Clear
2:55 PM 68.0 °F - 35.6 °F 30% 30.08 in 10.0 mi NNE 8.1 mph 19.6 mph N/A   Clear
3:15 PM 69.8 °F - 35.6 °F 28% 30.08 in 10.0 mi ENE 9.2 mph 18.4 mph N/A   Clear
3:35 PM 69.8 °F - 35.6 °F 28% 30.07 in 10.0 mi NE 10.4 mph - N/A   Clear
3:55 PM 69.8 °F - 35.6 °F 28% 30.07 in 10.0 mi East 6.9 mph - N/A   Clear
4:15 PM 68.0 °F - 35.6 °F 30% 30.06 in 10.0 mi East 6.9 mph - N/A   Clear
4:35 PM 69.8 °F - 35.6 °F 28% 30.06 in 10.0 mi East 6.9 mph - N/A   Clear
4:55 PM 69.8 °F - 35.6 °F 28% 30.05 in 10.0 mi East 6.9 mph - N/A   Clear
5:15 PM 69.8 °F - 35.6 °F 28% 30.05 in 10.0 mi Calm Calm - N/A   Clear
5:35 PM 69.8 °F - 37.4 °F 31% 30.04 in 10.0 mi SSE 6.9 mph - N/A   Clear
5:55 PM 69.8 °F - 35.6 °F 28% 30.04 in 10.0 mi East 4.6 mph - N/A   Clear
6:15 PM 69.8 °F - 37.4 °F 31% 30.04 in 10.0 mi SE 8.1 mph - N/A   Clear
6:35 PM 69.8 °F - 35.6 °F 28% 30.04 in 10.0 mi SE 6.9 mph - N/A   Clear
6:55 PM 68.0 °F - 37.4 °F 33% 30.04 in 10.0 mi SE 5.8 mph - N/A   Clear
7:15 PM 66.2 °F - 37.4 °F 35% 30.04 in 10.0 mi SE 5.8 mph - N/A   Clear
7:35 PM 64.4 °F - 37.4 °F 37% 30.04 in 10.0 mi SE 5.8 mph - N/A   Clear
7:55 PM 60.8 °F - 37.4 °F 42% 30.04 in 10.0 mi SE 6.9 mph - N/A   Clear
8:15 PM 60.8 °F - 39.2 °F 45% 30.04 in 10.0 mi SE 6.9 mph - N/A   Clear
8:35 PM 57.2 °F - 39.2 °F 51% 30.04 in 10.0 mi SE 6.9 mph - N/A   Clear
8:55 PM 55.4 °F - 37.4 °F 51% 30.05 in 10.0 mi SE 6.9 mph - N/A   Clear
9:15 PM 55.4 °F - 37.4 °F 51% 30.05 in 10.0 mi SSE 6.9 mph - N/A   Clear
9:35 PM 53.6 °F - 37.4 °F 54% 30.05 in 10.0 mi SSE 6.9 mph - N/A   Clear
9:55 PM 53.6 °F - 37.4 °F 54% 30.06 in 10.0 mi SE 6.9 mph - N/A   Clear
10:15 PM 51.8 °F - 37.4 °F 58% 30.06 in 10.0 mi SE 5.8 mph - N/A   Clear
10:35 PM 51.8 °F - 37.4 °F 58% 30.06 in 10.0 mi SSE 5.8 mph - N/A   Clear
10:55 PM 51.8 °F - 37.4 °F 58% 30.06 in 10.0 mi ESE 4.6 mph - N/A   Clear
11:15 PM 50.0 °F - 37.4 °F 62% 30.06 in 10.0 mi East 3.5 mph - N/A   Clear
11:35 PM 48.2 °F - 37.4 °F 66% 30.06 in 10.0 mi East 3.5 mph - N/A   Clear
11:55 PM 48.2 °F - 37.4 °F 66% 30.05 in 10.0 mi East 4.6 mph - N/A   Clear